Weather History for Pineville, WV

Change the Weather History Date:

Tuesday, February 12, 2013

  Actual Average (KBKW) Record (KBKW)
Temperature  
Mean Temperature 42 °F 34 °F  
Max Temperature 54 °F 42 °F 72 °F (1932)
Min Temperature 30 °F 25 °F -8 °F (1936)
Degree Days  
Heating Degree Days 24 31  
Month to date heating degree days 386  
Since 1 July heating degree days 3530  
Cooling Degree Days 0 0  
Month to date cooling degree days 0  
Year to date cooling degree days 0  
Moisture  
Dew Point 29 °F    
Average Humidity 64    
Maximum Humidity 95    
Minimum Humidity 32    
Precipitation  
Precipitation 0.00 in 0.10 in 1.50 in (1923)
Month to date precipitation 1.16  
Year to date precipitation 3.97  
Sea Level Pressure  
Sea Level Pressure 30.09 in    
Wind  
Wind Speed - (North)    
Max Wind Speed -    
Max Gust Speed -    
Visibility 10 miles    
Events      
T = Trace of Precipitation, MM = Missing Value Source: NWS Daily Summary

Daily Weather History Graph

Daily Weather History Graph

Search for Another Location

Airport:

Trip Planner

Search our weather history database for the weather conditions in past years. The results will help you decide how hot, cold, wet, or windy it might be!

Date:

Astronomy

Feb. 12, 2013 Rise Set
Actual Time 7:18 AM EST 6:02 PM EST
Civil Twilight 6:51 AM EST 6:29 PM EST
Nautical Twilight 6:21 AM EST 7:00 PM EST
Astronomical Twilight 5:50 AM EST 7:30 PM EST
Moon 8:19 AM EST (2/12) 8:57 PM EST (2/12)
Length of Visible Light 11h 37m
Length of Day
10h 43m
Waxing Crescent, 7% of the Moon is Illuminated
Feb 12
Waxing Crescent
Feb 17
First Quarter
Feb 25
Full
Mar 4
Last Quarter
Mar 11
New

Hourly Weather History & Observations

Time (EST) Temp. Dew Point Humidity Pressure Visibility Wind Dir Wind Speed Gust Speed Precip Events Conditions
12:15 AM 42.3 °F 27.7 °F 56% 30.11 in 10.0 mi North - - N/A   Clear
12:35 AM 40.6 °F 28.4 °F 62% 30.12 in 10.0 mi North - - N/A   Clear
12:55 AM 39.4 °F 29.1 °F 67% 30.12 in 10.0 mi North - - N/A   Clear
1:15 AM 37.4 °F 29.7 °F 74% 30.12 in 10.0 mi North - - N/A   Clear
1:35 AM 40.1 °F 28.4 °F 63% 30.12 in 10.0 mi North - - N/A   Clear
1:55 AM 41.7 °F 28.2 °F 59% 30.12 in 10.0 mi North - - N/A   Clear
2:15 AM 41.4 °F 28.2 °F 60% 30.12 in 10.0 mi North - - N/A   Clear
2:35 AM 41.2 °F 28.2 °F 60% 30.13 in 10.0 mi North - - N/A   Clear
2:55 AM 40.5 °F 28.0 °F 61% 30.13 in 10.0 mi North - - N/A   Clear
3:15 AM 39.9 °F 28.4 °F 63% 30.12 in 10.0 mi North - - N/A   Clear
3:35 AM 38.3 °F 28.8 °F 69% 30.12 in 10.0 mi North - - N/A   Clear
3:55 AM 36.5 °F 29.3 °F 75% 30.12 in 10.0 mi North - - N/A   Clear
4:15 AM 34.7 °F 29.7 °F 82% 30.12 in 10.0 mi North - - N/A   Clear
4:35 AM 34.0 °F 29.7 °F 84% 30.13 in 10.0 mi North - - N/A   Clear
4:55 AM 33.8 °F 29.5 °F 84% 30.14 in 10.0 mi North - - N/A   Clear
5:15 AM 32.9 °F 29.7 °F 88% 30.14 in 10.0 mi North - - N/A   Clear
5:35 AM 32.4 °F 30.0 °F 91% 30.15 in 10.0 mi North - - N/A   Clear
5:55 AM 32.0 °F 29.8 °F 92% 30.15 in 10.0 mi North - - N/A   Clear
6:15 AM 32.0 °F 29.7 °F 91% 30.15 in 10.0 mi North - - N/A   Clear
6:35 AM 31.6 °F 29.7 °F 92% 30.15 in 10.0 mi North - - N/A   Clear
6:55 AM 30.9 °F 29.1 °F 93% 30.16 in 10.0 mi North - - N/A   Clear
7:15 AM 30.7 °F 28.9 °F 93% 30.17 in 10.0 mi North - - N/A   Clear
7:35 AM 30.0 °F 28.8 °F 95% 30.17 in 10.0 mi North - - N/A   Clear
7:55 AM 30.2 °F 28.6 °F 94% 30.18 in 10.0 mi North - - N/A   Clear
8:15 AM 30.2 °F 28.9 °F 95% 30.18 in 10.0 mi North - - N/A   Clear
8:35 AM 33.8 °F 31.5 °F 91% 30.17 in 10.0 mi North - - N/A   Clear
8:55 AM 38.1 °F 31.1 °F 76% 30.17 in 10.0 mi North - - N/A   Clear
9:15 AM 41.9 °F 30.2 °F 63% 30.18 in 10.0 mi North - - N/A   Clear
9:35 AM 42.8 °F 29.7 °F 60% 30.18 in 10.0 mi North - - N/A   Clear
9:55 AM 43.7 °F 29.7 °F 58% 30.19 in 10.0 mi North - - N/A   Clear
10:15 AM 44.4 °F 29.5 °F 56% 30.19 in 10.0 mi North - - N/A   Clear
10:35 AM 45.0 °F 28.8 °F 53% 30.18 in 10.0 mi North - - N/A   Clear
10:55 AM 46.2 °F 28.9 °F 51% 30.17 in 10.0 mi North - - N/A   Clear
11:15 AM 46.8 °F 28.4 °F 49% 30.16 in 10.0 mi North - - N/A   Clear
11:35 AM 47.3 °F 28.4 °F 48% 30.13 in 10.0 mi North - - N/A   Clear
11:55 AM 48.6 °F 27.7 °F 44% 30.11 in 10.0 mi North - - N/A   Clear
12:15 PM 50.0 °F 27.1 °F 41% 30.10 in 10.0 mi North - - N/A   Clear
12:35 PM 50.9 °F 26.1 °F 38% 30.06 in 10.0 mi North - - N/A   Clear
12:55 PM 52.5 °F 27.1 °F 38% 29.99 in 10.0 mi North - - N/A   Clear
1:15 PM 52.5 °F 23.9 °F 33% 30.08 in 10.0 mi North - - N/A   Clear
1:55 PM 53.2 °F 25.2 °F 34% 30.08 in 10.0 mi North - - N/A   Clear
2:15 PM 53.6 °F 25.2 °F 33% 30.08 in 10.0 mi North - - N/A   Clear
2:35 PM 53.6 °F 24.8 °F 33% 30.08 in 10.0 mi North - - N/A   Clear
2:55 PM 53.6 °F 24.6 °F 33% 30.06 in 10.0 mi North - - N/A   Clear
3:15 PM 53.6 °F 24.4 °F 32% 30.04 in 10.0 mi North - - N/A   Clear
3:35 PM 53.8 °F 24.8 °F 33% 30.06 in 10.0 mi North - - N/A   Clear
3:55 PM 52.2 °F 24.6 °F 34% 30.07 in 10.0 mi North - - N/A   Clear
4:15 PM 51.8 °F 24.4 °F 34% 30.08 in 10.0 mi North - - N/A   Clear
4:55 PM 51.3 °F 24.1 °F 35% 30.05 in 10.0 mi North - - N/A   Clear
5:15 PM 50.4 °F 26.8 °F 40% 30.05 in 10.0 mi North - - N/A   Clear
5:55 PM 47.1 °F 29.7 °F 51% 30.03 in 10.0 mi North - - N/A   Clear
6:15 PM 45.0 °F 30.7 °F 57% 30.02 in 10.0 mi North - - N/A   Clear
6:35 PM 43.0 °F 30.7 °F 62% 30.01 in 10.0 mi North - - N/A   Clear
6:55 PM 41.4 °F 31.6 °F 68% 29.99 in 10.0 mi North - - N/A   Clear
7:15 PM 41.7 °F 31.8 °F 68% 29.98 in 10.0 mi North - - N/A   Clear
7:35 PM 41.0 °F 30.7 °F 67% 30.00 in 10.0 mi North - - N/A   Clear
7:55 PM 41.0 °F 32.0 °F 70% 30.00 in 10.0 mi North - - N/A   Clear
8:15 PM 41.0 °F 32.0 °F 70% 30.00 in 10.0 mi North - - N/A   Clear
8:35 PM 41.2 °F 32.2 °F 70% 30.02 in 10.0 mi North - - N/A   Clear
9:15 PM 40.5 °F 32.5 °F 73% 29.99 in 10.0 mi North - - N/A   Scattered Clouds
9:35 PM 40.6 °F 32.4 °F 72% 30.00 in 10.0 mi North - - N/A   Clear
9:55 PM 39.6 °F 32.4 °F 75% 30.00 in 10.0 mi North - - N/A   Clear
10:15 PM 38.7 °F 32.0 °F 77% 29.98 in 10.0 mi North - - N/A   Clear
10:35 PM 37.4 °F 31.6 °F 80% 29.97 in 10.0 mi North - - N/A   Clear
10:55 PM 36.1 °F 31.1 °F 82% 29.98 in 10.0 mi North - - N/A   Clear
11:15 PM 36.3 °F 31.3 °F 82% 29.96 in 10.0 mi North - - N/A   Clear
11:35 PM 35.8 °F 31.3 °F 84% 29.97 in 10.0 mi North - - N/A   Clear
11:55 PM 34.5 °F 31.1 °F 87% 29.96 in 10.0 mi North - - N/A   Scattered Clouds